Location: Fairview
(37.6785°N, 122.0458°W)
Time: 05:09:51
(UTC+00:00)

Daily predictions for brighter satellites

Satellite Brightness Start Highest point End
(mag) Time Altitude Azimuth Time Altitude Azimuth Time Altitude Azimuth
Envisat 3.4 01:39:34 10° SE 01:44:16 40° ENE 01:48:59 10° N
CORIOLIS 4.1 01:39:26 10° SSE 01:44:46 77° ENE 01:50:08 10° N
COBE Rocket 4.1 01:40:23 10° NNE 01:45:24 55° E 01:50:15 10° S
Cosmos 1953 Rocket 4.2 01:42:08 10° NNW 01:46:25 61° W 01:50:40 10° S
NOAA 12 4.2 01:42:57 10° SSE 01:48:07 58° ENE 01:53:20 10° N
ATLAS 3B R/B 3.3 01:47:31 10° S 01:53:28 34° ESE 01:59:20 10° NE
Okean-O 2.6 01:52:11 10° SSE 01:56:36 81° ENE 02:01:03 10° N
Shenzhou-11 Module 1.7 01:54:08 10° WNW 01:56:55 89° S 01:59:40 10° ESE
Delta 2 Rocket 3.2 01:53:39 10° WSW 01:57:24 62° S 02:00:39 11° E
Cosmos 1703 3.2 01:53:47 10° N 01:57:43 85° E 02:01:36 10° S
CENTAUR R/B 2.9 01:53:41 10° S 01:58:52 37° ESE 02:04:44 10° NE
Cosmos 1908 3.7 02:00:11 10° SSW 02:04:04 67° W 02:07:55 10° N
EO 1 Delta rocket 4.4 02:00:18 10° SE 02:04:30 36° ENE 02:09:06 10° N
USA 215 4.2 01:59:11 10° SSE 02:05:32 52° SW 02:11:54 10° NW
YAOGAN 6 3.1 02:03:12 10° SE 02:06:34 37° ENE 02:09:56 10° N
Cosmos 1943 Rocket 3.8 02:04:28 10° ESE 02:06:40 12° E 02:07:11 12° E
Cosmos 2082 Rocket 2.5 02:01:53 10° N 02:07:21 45° ENE 02:12:44 10° SE
Unknown 3.6 02:06:53 10° NW 02:10:07 40° NE 02:12:34 16° ESE
Cosmos 1812 Rocket 3.6 02:07:42 10° S 02:12:02 57° E 02:16:25 10° NNE
CZ-3 Stage 3 2.7 02:14:32 10° WSW 02:20:53 32° SSW 02:22:53 15° SE
YAOGAN 1 2.7 02:19:15 10° SSE 02:23:25 49° ENE 02:27:36 10° N
CZ-4 R/B 1.4 02:19:48 10° SSE 02:23:57 68° ENE 02:28:10 10° N
Ariane Rocket 3.9 02:23:20 12° ESE 02:27:04 27° ENE 02:31:19 10° N
FALCON 9 DEB 3.4 02:24:31 10° NW 02:27:54 50° NE 02:29:28 27° E
Cosmos 468 Rocket 4.2 02:23:37 10° S 02:28:41 49° ESE 02:33:44 10° NNE
SKYMED 2 3.9 02:24:50 10° N 02:29:10 68° WNW 02:33:27 10° SSW
Cosmos 1459 Rocket 4.4 02:25:21 10° N 02:31:12 40° ENE 02:37:05 10° SE
USA 238 4.5 02:27:06 10° SW 02:33:33 50° NW 02:40:13 10° NNE
Cosmos 1461 3.6 02:31:29 10° NW 02:35:32 55° WSW 02:39:44 10° SSE
ASTEX 1 4.5 02:31:04 10° N 02:35:50 48° W 02:40:37 10° SSW
Lacrosse 5 1.8 02:33:11 10° NW 02:38:16 80° NE 02:42:06 18° SE
Falcon 9 debris 3.0 02:36:21 10° NW 02:39:47 76° NE 02:41:00 37° ESE
Meteor 2-1 Rocket 4.2 02:34:29 10° S 02:39:52 59° E 02:45:21 10° NNE
Cosmos-2242 3.4 02:37:40 10° SSE 02:41:44 41° E 02:45:49 10° NNE
USA 116 3.7 02:39:01 10° N 02:42:24 73° WNW 02:46:11 10° SSW
Cosmos 2278 Rocket 4.2 02:38:51 10° WSW 02:43:35 27° WNW 02:48:20 10° N
Cosmos 841 Rocket 4.3 02:40:25 10° SSE 02:44:46 29° ESE 02:44:46 29° ESE
Cosmos 1937 Rocket 4.3 02:41:45 10° N 02:46:13 29° ENE 02:46:18 29° ENE
Cosmos 2061 Rocket 4.4 02:41:18 10° N 02:47:02 38° ENE 02:51:50 14° SE
CSL-04 Rocket 3.7 02:41:50 10° SSE 02:47:21 90° WSW 02:52:51 10° NNW
Unknown 3.1 02:44:38 10° NW 02:48:09 66° NE 02:48:40 56° E
Cosmos 1300 3.2 02:45:21 10° SSW 02:49:06 60° W 02:52:53 10° N
Cosmos 2297 3.9 02:44:15 10° SSW 02:49:56 76° WNW 02:55:41 10° NNE
Cosmos 44 4.2 02:47:46 10° SW 02:52:35 48° NW 02:57:10 10° NNE
Cosmos 1570 Rocket 4.0 02:47:32 10° S 02:52:45 58° ESE 02:57:47 11° NNE
Cosmos 2084 Rocket 3.4 02:50:11 10° NNW 02:54:37 87° NE 02:56:38 31° SE
Cosmos 2173 Rocket 3.8 02:56:20 10° N 03:02:32 73° E 03:08:38 10° SSE
Cosmos 1763 Rocket 3.4 02:57:22 10° SSW 03:02:40 80° ESE 03:07:58 10° NNE
SJ 16-02 2.5 02:59:09 10° N 03:01:37 27° NNE 03:01:37 27° NNE
CZ-2D R/B 3.1 03:03:41 31° SSE 03:05:28 90° ESE 03:09:21 10° NNW
Gbstr 26 Del rocket 4.5 03:01:42 10° NW 03:08:00 65° SW 03:13:29 19° SSE
Unknown 3.5 03:05:35 10° NW 03:08:57 64° WSW 03:08:57 64° WSW
ADEOS Rocket 4.2 03:03:25 10° NNE 03:14:19 20° SSE 03:16:21 10° SSE
Cosmos 2208 Rocket 3.8 03:05:30 10° S 03:10:39 71° ESE 03:12:53 34° NNE
NOAA 11 4.1 03:05:15 10° SSE 03:10:41 88° ENE 03:16:09 10° NNW
Cosmos 2123 Rocket 4.0 03:06:22 10° S 03:12:30 57° E 03:18:37 10° NNE
Cosmos 1833 Rocket 4.5 03:10:07 10° NW 03:15:00 31° WSW 03:19:51 10° SSW
Cosmos 1802 Rocket 3.9 03:11:46 10° N 03:18:13 79° E 03:24:33 10° S
Cosmos 2058 3.6 03:16:12 10° NNW 03:20:19 54° W 03:24:23 10° S
Cosmos 44 Rocket 3.3 03:16:24 10° SSW 03:21:01 68° SSE 03:21:01 68° SSE
Cosmos 1939 Rocket 3.3 03:22:07 44° SSW 03:23:08 61° W 03:27:10 10° NNW
Cosmos 1725 Rocket 3.9 03:21:15 10° N 03:27:30 61° E 03:27:35 61° E
Cosmos 2344 3.8 03:22:33 10° S 03:29:00 44° SE 03:29:00 44° SE
Cosmos 1814 Rocket 4.1 03:26:14 10° SSW 03:30:33 61° S 03:30:33 61° S
Cosmos 2100 Rocket 4.5 03:27:48 10° NNW 03:33:49 58° W 03:39:48 10° S
Cosmos 2369 Rocket 2.7 03:29:39 10° SSW 03:33:39 46° S 03:33:39 46° S
Cosmos 1898 Rocket 3.9 03:35:17 10° NNW 03:40:30 61° WSW 03:41:44 47° SSW
H-2A R/B 4.1 03:44:30 18° N 03:44:30 18° N 03:45:54 10° N
ATLAS 3B R/B 3.6 03:37:33 10° WSW 03:43:57 44° NW 03:48:57 16° NNE
Cosmos 2016 Rocket 4.1 03:41:39 10° N 03:47:57 73° W 03:51:44 26° S
CENTAUR R/B 3.8 03:43:58 10° WSW 03:49:26 37° NW 03:54:32 15° NNE
Cosmos 1943 Rocket 2.4 03:44:05 10° SSW 03:48:50 64° SW 03:48:50 64° SW
MOS 1 4.4 03:51:23 72° WNW 03:51:23 72° WNW 03:56:36 10° NNW
Cosmos 2082 Rocket 4.4 03:46:44 10° NW 03:51:03 23° W 03:55:22 10° SSW
Lacrosse 5 4.4 04:18:04 10° W 04:20:36 14° WSW 04:21:22 14° SW
Milstar 3 4.4 11:12:59 25° SSE 11:12:59 25° SSE 11:17:15 10° ESE
ATLAS 3B R/B 3.3 11:18:44 50° E 11:18:44 50° E 11:24:25 10° SE
CENTAUR R/B 3.3 11:22:44 66° NNE 11:23:47 72° NE 11:32:29 10° SE
SL-16 R/B 3.3 11:28:34 40° E 11:28:34 40° E 11:32:59 10° NE
ATLAS 2AS CENTAUR R/B 3.9 11:52:30 33° NNW 11:52:30 33° NNW 11:58:25 10° NNE
